Wind_Speed
52 47 47 54 54 51 49 45 45 48 49 47 45 39 38 40 42 46 52 51 50 46 43 41 40 37 41 45 44 45 38 37 37 35 33 33 34 37 38 42 44 45 45 47
50 49 52 56 57 53 48 45 46 46 50 47 48 44 46 47 50 56 54 54 54 51 55 49 52 46 42 43 45 44 44 40 42 38 43 43 43 45 44 45 49 52 50 50
56 54 53 56 55 53 52 52 53 51 50 50 53 50 51 53 59 60 60 57 58 61 63 65 60 54 48 48 48 48 49 50 51 53 52 51 56 64 56 51 53 51 55 55
59 64 62 65 69 66 60 65 59 57 57 59 57 54 58 62 65 66 63 62 63 68 66 65 68 70 63 62 63 51 52 54 56 56 59 62 62 62 64 64 66 62 59 59
66 61 63 65 69 70 70 69 70 65 63 60 62 61 64 67 68 73 70 70 75 69 68 71 72 73 75 71 69 72 68 67 69 66 67 68 72 71 73 73 74 74 72 74
76 78 82 76 78 82 87 76 75 69 74 66 69 70 64 68 72 73 72 78 86 79 82 89 88 83 80 81 83 80 82 81 84 84 80 88 78 83 84 81 81 83 82 80
88 82 89 93 84 84 91 94 93 90 83 69 82 74 74 83 76 75 80 83 85 86 89 91 92 90 84 87 83 83 90 92 92 93 93 92 91 92 88 87 94 85 87 89
94 90 94 95 95 97 93 97 99 103 95 94 90 83 80 88 90 94 93 91 89 87 89 89 95 93 93 92 92 95 92 94 96 98 99 98 100 100 99 99 96 94 92 96
102 97 106 101 99 104 106 98 104 107 105 109 95 91 87 96 101 97 99 105 100 99 100 102 95 104 104 107 105 103 103 102 101 103 106 107 106 106 108 108 107 107 105 102
119 119 112 109 112 107 111 104 103 109 117 115 108 103 101 102 108 108 109 109 109 111 109 112 112 109 111 113 114 114 117 116 114 115 117 117 117 118 117 115 113 112 111 112
128 129 107 116 107 102 106 109 111 113 116 123 122 114 101 109 115 116 116 118 119 117 117 120 121 118 119 120 123 128 125 126 126 128 130 129 126 126 129 127 124 127 126 124
125 122 116 108 107 110 111 107 113 119 121 123 128 126 116 118 120 122 121 123 121 123 122 122 126 125 123 128 128 132 136 136 140 143 141 136 136 133 133 137 137 136 136 133
116 118 121 113 107 113 117 121 125 120 126 128 134 133 127 129 130 130 129 133 131 131 134 135 135 137 137 140 143 145 150 152 153 151 147 147 139 141 137 139 141 139 141 139
122 119 119 120 115 113 118 118 124 129 133 134 138 142 141 140 145 146 144 145 142 138 141 143 140 134 131 127 130 130 128 138 145 151 148 145 145 146 146 143 142 142 142 137
122 119 117 115 114 116 117 120 119 122 130 138 137 140 130 135 146 135 131 128 123 115 110 109 113 113 109 108 111 112 112 115 118 123 127 129 130 134 139 143 148 146 141 140
119 119 118 112 116 119 119 109 112 120 122 122 127 124 123 122 122 122 120 121 123 120 117 115 112 112 111 111 109 109 111 112 110 114 119 123 126 128 129 132 135 137 141 141
119 121 122 113 118 120 112 112 120 119 119 123 124 122 119 123 120 118 118 120 119 118 117 115 111 110 110 110 108 104 104 105 106 107 111 116 120 123 126 129 131 132 132 133
117 119 122 118 119 120 111 114 120 118 114 116 118 116 114 114 114 111 115 113 110 111 111 110 110 110 110 109 106 103 100 99 100 101 103 108 114 117 119 122 126 129 131 130
117 117 121 120 118 117 107 116 114 115 106 110 108 108 107 106 106 107 113 109 110 111 109 109 107 107 107 108 106 102 101 99 99 98 99 103 106 108 111 115 120 123 125 125
117 118 119 117 117 112 105 108 107 111 103 106 106 107 104 101 98 98 104 104 103 103 104 103 101 100 101 102 100 99 99 100 98 96 97 99 103 105 106 107 109 113 117 119
107 108 108 107 109 105 101 103 106 105 103 100 100 99 97 95 94 93 96 97 98 98 98 96 93 93 95 95 94 94 95 95 95 94 94 95 98 99 101 103 106 109 112 114
101 101 102 104 106 107 102 101 101 101 96 95 96 94 93 91 90 90 90 91 93 93 92 92 91 93 95 95 92 90 91 90 89 88 90 91 92 94 95 97 97 99 101 103
102 101 101 100 102 100 96 95 97 97 92 92 93 91 90 88 88 88 88 89 90 90 90 90 91 91 95 95 92 88 89 87 87 90 90 90 89 90 91 91 92 93 96 96
98 95 98 98 97 98 95 97 93 92 90 89 89 88 88 86 86 86 86 86 87 87 87 87 89 89 91 91 91 89 87 88 89 90 91 90 89 90 90 89 89 90 92 93
97 98 100 92 95 95 92 93 92 91 89 87 86 83 82 81 82 82 83 82 82 82 82 83 85 86 86 87 89 88 88 87 88 88 86 84 82 82 82 82 83 83 83 84
100 97 96 91 92 88 83 91 92 89 85 83 83 81 80 79 79 77 77 76 76 79 80 83 85 85 83 83 84 82 81 80 81 82 81 78 77 77 77 77 79 79 78 79
Wind_Direction
267 263 261 264 271 271 267 266 267 265 266 267 266 262 256 255 270 278 282 278 282 283 277 283 279 268 262 262 268 272 271 272 273 276 276 280 277 277 277 276 275 273 271 271
268 269 266 268 269 269 269 273 269 263 263 266 261 264 260 262 258 273 277 282 287 280 282 279 288 279 271 261 256 260 262 269 272 270 275 278 269 288 272 284 276 275 273 275
282 274 272 275 274 274 278 275 271 264 261 263 261 262 257 262 262 268 274 282 281 281 282 284 283 282 280 267 264 258 255 261 271 269 277 274 278 281 281 281 283 279 274 271
286 283 283 282 281 277 279 279 271 271 268 263 262 259 258 256 261 265 270 271 275 276 275 281 283 283 281 283 284 277 267 268 272 271 273 277 284 282 285 286 285 283 271 276
281 285 283 281 283 283 278 279 272 266 266 267 268 264 257 262 261 263 263 265 273 266 268 276 280 278 278 280 281 284 284 285 287 283 281 284 284 280 283 283 282 282 283 282
290 293 293 293 279 281 286 285 282 282 275 269 266 262 265 270 267 263 261 261 263 261 266 272 277 275 273 275 276 279 280 283 285 286 283 283 279 284 280 278 283 280 276 276
294 292 293 297 294 282 284 285 293 288 283 284 268 266 274 275 272 273 264 258 262 261 265 269 272 273 275 273 271 272 271 273 276 281 282 280 277 279 282 275 280 277 275 272
290 291 288 291 291 290 284 284 283 282 286 285 283 287 274 272 270 273 280 283 273 271 268 275 274 276 273 270 272 271 270 268 265 268 270 270 275 273 272 272 274 272 272 270
289 290 288 286 285 286 286 281 276 282 283 279 281 277 271 272 276 273 271 275 275 273 273 273 275 273 275 273 271 272 275 272 270 268 266 265 266 267 266 267 268 267 264 265
291 289 286 283 285 284 280 278 276 274 279 277 279 275 276 268 271 272 275 271 272 272 271 270 272 272 275 276 273 272 272 273 273 275 273 269 267 266 264 263 263 264 265 265
288 286 283 284 282 279 279 277 275 274 275 275 275 274 273 270 270 272 272 273 271 268 266 268 269 269 269 272 275 274 272 268 268 272 275 270 268 266 263 262 262 262 264 263
284 282 283 282 283 279 274 273 273 273 274 271 274 278 275 272 273 272 270 269 268 267 267 268 266 266 266 268 269 269 271 270 269 271 272 271 268 266 265 263 264 263 265 265
281 281 282 281 277 277 273 272 275 276 274 275 277 279 277 275 274 270 269 268 270 267 268 269 269 268 267 269 267 267 266 265 268 269 271 272 267 266 265 265 265 265 265 267
280 281 282 281 279 274 273 271 270 271 273 273 273 275 275 275 274 275 276 277 274 271 271 269 270 270 269 269 268 267 266 264 264 265 266 265 264 265 267 267 264 264 267 267
282 281 281 279 279 276 274 273 271 272 271 273 274 274 275 273 274 277 277 277 279 278 276 273 273 273 270 268 267 266 264 262 262 262 262 262 262 263 264 264 265 265 264 264
282 281 280 278 279 278 277 278 278 274 273 275 277 278 278 278 278 280 280 280 280 280 279 277 276 274 273 272 268 266 267 266 264 262 261 260 259 261 262 262 262 263 264 265
282 282 282 280 280 278 279 281 277 278 278 279 280 280 281 281 280 280 280 279 278 279 278 278 277 276 274 273 272 269 268 267 266 265 262 261 261 261 261 261 261 261 261 262
282 282 282 282 280 280 281 280 279 280 280 279 279 280 279 279 279 280 280 280 280 279 278 278 278 278 278 277 275 274 273 271 269 267 265 264 263 262 261 261 261 261 262 262
283 283 282 282 282 283 284 282 283 281 279 280 279 278 279 280 281 281 279 280 279 278 278 278 279 278 277 277 277 276 275 273 272 269 268 266 265 263 262 262 262 262 262 262
281 281 282 283 282 282 281 281 281 280 282 280 282 283 282 282 282 280 280 280 279 279 279 278 279 279 279 279 279 278 276 275 273 271 269 268 267 266 264 262 261 261 261 261
280 280 281 281 281 282 282 280 281 282 281 283 283 283 283 282 280 278 278 279 280 279 280 281 280 280 279 279 278 277 276 276 276 275 274 272 270 268 267 265 263 261 261 262
281 280 281 282 283 283 283 283 283 283 284 284 283 283 282 281 280 280 279 278 277 278 279 280 280 280 280 279 279 279 279 279 279 278 275 273 271 270 269 268 267 265 263 261
279 282 282 283 282 283 283 283 282 284 285 285 284 283 282 281 280 279 279 279 279 279 279 280 280 280 280 281 281 281 281 281 280 278 276 275 273 272 270 269 267 266 265 263
282 282 283 282 284 285 284 287 286 285 284 283 284 284 284 283 282 281 280 280 280 280 280 280 281 280 281 282 282 282 282 280 279 278 277 277 276 274 272 271 269 267 265 263
287 284 284 285 284 284 287 286 284 284 286 286 286 286 285 283 282 281 281 281 281 281 281 281 280 280 281 282 282 281 280 280 280 279 277 276 275 275 274 273 271 269 267 265
285 285 285 284 283 284 283 283 285 286 286 287 287 288 288 286 284 283 283 283 282 281 281 281 281 281 282 282 281 281 281 280 279 279 279 279 278 276 274 273 272 271 268 267
Height
10728 10728 10729 10722 10726 10727 10728 10730 10730 10725 10723 10724 10720 10723 10721 10718 10710 10706 10706 10708 10708 10709 10708 10706 10705 10707 10707 10705 10704 10701 10701 10699 10698 10698 10697 10696 10695 10693 10690 10689 10689 10690 10692 10692
10717 10718 10715 10711 10710 10714 10715 10718 10717 10716 10713 10715 10711 10713 10707 10708 10702 10696 10692 10696 10699 10697 10694 10692 10691 10692 10693 10691 10690 10691 10691 10689 10687 10686 10685 10684 10684 10681 10681 10680 10678 10675 10678 10678
10702 10703 10704 10698 10697 10696 10700 10700 10700 10702 10700 10699 10702 10701 10698 10695 10687 10684 10684 10685 10680 10679 10678 10677 10676 10677 10679 10679 10678 10676 10674 10675 10677 10676 10673 10671 10670 10667 10667 10667 10666 10663 10663 10664
10689 10683 10685 10687 10683 10681 10683 10677 10682 10683 10684 10684 10684 10687 10685 10680 10673 10677 10678 10669 10667 10664 10661 10661 10661 10661 10661 10662 10660 10661 10662 10661 10661 10660 10659 10657 10654 10651 10648 10649 10649 10649 10649 10648
10671 10670 10669 10667 10664 10661 10666 10664 10660 10660 10664 10667 10665 10665 10668 10660 10660 10658 10662 10657 10651 10648 10645 10642 10641 10642 10640 10641 10641 10640 10640 10639 10638 10640 10638 10638 10636 10634 10633 10630 10628 10630 10629 10629
10648 10655 10649 10645 10644 10641 10640 10641 10641 10641 10642 10656 10642 10636 10654 10644 10641 10640 10640 10636 10629 10628 10627 10626 10624 10624 10624 10622 10618 10617 10616 10617 10616 10614 10615 10616 10614 10615 10613 10611 10610 10609 10608 10608
10630 10628 10627 10622 10622 10620 10613 10611 10613 10610 10609 10634 10612 10626 10635 10622 10617 10617 10614 10613 10605 10604 10604 10605 10603 10600 10599 10598 10597 10597 10595 10591 10591 10589 10589 10589 10589 10588 10589 10589 10588 10587 10588 10586
10606 10615 10597 10606 10600 10592 10589 10589 10577 10570 10590 10592 10600 10602 10615 10590 10592 10586 10580 10586 10588 10581 10581 10574 10572 10571 10570 10568 10569 10569 10569 10568 10568 10564 10560 10559 10560 10560 10560 10560 10562 10562 10562 10563
10575 10593 10573 10574 10575 10570 10564 10559 10548 10539 10551 10544 10580 10575 10583 10562 10555 10558 10558 10553 10555 10553 10549 10545 10542 10538 10536 10534 10536 10537 10538 10537 10538 10537 10536 10535 10533 10531 10529 10528 10529 10530 10534 10536
10544 10551 10556 10544 10548 10547 10525 10533 10525 10518 10501 10505 10527 10543 10547 10536 10525 10528 10522 10521 10522 10519 10516 10510 10508 10505 10503 10502 10501 10502 10502 10500 10500 10500 10499 10500 10499 10498 10498 10497 10498 10499 10500 10502
10515 10510 10547 10514 10523 10516 10503 10500 10494 10483 10482 10464 10469 10495 10522 10503 10491 10493 10492 10486 10482 10483 10480 10481 10476 10472 10471 10469 10463 10462 10463 10463 10463 10461 10460 10458 10458 10459 10459 10461 10462 10463 10467 10467
10483 10471 10483 10505 10492 10476 10472 10472 10463 10451 10447 10447 10436 10432 10457 10461 10465 10453 10449 10448 10444 10440 10439 10437 10438 10435 10434 10433 10430 10424 10419 10419 10419 10419 10420 10418 10416 10417 10417 10420 10422 10423 10424 10427
10457 10447 10440 10460 10470 10447 10438 10441 10434 10425 10415 10414 10401 10403 10408 10404 10405 10404 10405 10404 10407 10408 10402 10396 10392 10393 10394 10392 10390 10386 10382 10380 10375 10373 10371 10369 10371 10373 10376 10377 10377 10379 10381 10383
10422 10422 10416 10408 10417 10422 10406 10400 10403 10398 10386 10379 10369 10366 10372 10361 10348 10344 10352 10352 10360 10362 10361 10355 10354 10351 10347 10342 10344 10340 10334 10334 10335 10332 10327 10323 10326 10326 10325 10327 10334 10336 10335 10337
10386 10383 10382 10378 10375 10370 10366 10367 10376 10364 10349 10329 10339 10329 10339 10323 10305 10314 10310 10310 10306 10305 10307 10309 10304 10301 10306 10304 10297 10295 10296 10293 10291 10288 10285 10285 10285 10285 10284 10283 10283 10286 10290 10296
10354 10347 10345 10349 10342 10327 10320 10347 10340 10317 10313 10301 10293 10290 10289 10280 10280 10275 10276 10273 10266 10264 10263 10259 10258 10258 10256 10256 10260 10261 10256 10252 10252 10250 10246 10245 10246 10247 10246 10244 10243 10244 10245 10250
10323 10312 10305 10310 10305 10293 10303 10312 10284 10284 10282 10269 10258 10256 10260 10245 10245 10243 10239 10230 10229 10223 10221 10216 10216 10213 10214 10215 10216 10221 10219 10215 10213 10210 10209 10208 10207 10207 10205 10205 10206 10206 10209 10212
10290 10281 10266 10269 10265 10256 10283 10268 10250 10248 10250 10239 10225 10225 10222 10219 10215 10214 10195 10192 10194 10187 10183 10182 10181 10179 10175 10173 10174 10178 10181 10180 10177 10177 10176 10172 10169 10170 10169 10169 10170 10171 10171 10177
10255 10251 10232 10231 10229 10226 10249 10222 10216 10203 10216 10199 10196 10193 10191 10189 10189 10185 10160 10167 10158 10153 10151 10146 10147 10144 10139 10132 10133 10139 10139 10141 10140 10140 10139 10135 10133 10136 10136 10136 10136 10137 10137 10141
10229 10219 10206 10204 10191 10193 10204 10189 10184 10168 10180 10169 10167 10161 10160 10160 10159 10153 10135 10129 10129 10123 10118 10115 10115 10112 10106 10099 10100 10101 10100 10098 10099 10103 10105 10103 10100 10099 10101 10102 10103 10102 10100 10105
10199 10190 10178 10172 10158 10164 10170 10161 10149 10147 10146 10144 10137 10132 10129 10128 10123 10120 10112 10105 10098 10094 10089 10086 10087 10084 10074 10069 10070 10068 10066 10063 10065 10067 10068 10066 10062 10061 10061 10064 10066 10068 10067 10067
10165 10157 10152 10145 10137 10131 10136 10130 10121 10112 10118 10115 10107 10105 10100 10098 10094 10089 10084 10079 10072 10069 10066 10061 10059 10051 10041 10038 10041 10042 10037 10036 10037 10037 10034 10030 10028 10026 10027 10028 10031 10031 10033 10038
10132 10134 10126 10122 10108 10105 10107 10101 10093 10090 10093 10086 10076 10075 10070 10070 10066 10060 10056 10050 10044 10041 10038 10033 10030 10026 10014 10011 10011 10015 10011 10010 10008 10001 9998 9997 9997 9995 9994 9995 9996 9996 9995 9999
10113 10114 10098 10091 10088 10080 10074 10066 10068 10062 10061 10058 10051 10049 10042 10040 10035 10031 10026 10022 10018 10014 10012 10009 10003 9999 9992 9986 9982 9982 9984 9979 9975 9972 9968 9966 9965 9961 9958 9958 9958 9959 9960 9962
10092 10078 10072 10073 10063 10053 10053 10042 10036 10033 10031 10028 10022 10021 10017 10013 10007 10004 9999 9997 9993 9989 9986 9981 9975 9971 9969 9963 9955 9954 9953 9948 9943 9939 9936 9935 9935 9932 9930 9928 9925 9926 9926 9929
10053 10050 10040 10043 10036 10035 10039 10014 10009 10008 10005 10000 9993 9993 9989 9986 9981 9979 9975 9972 9968 9962 9959 9954 9948 9946 9943 9935 9929 9928 9924 9921 9915 9910 9908 9907 9906 9902 9899 9899 9895 9894 9896 9897